When you browse on this site, cookies collect data to enhance your experience and personalize the content and advertising you see.
Visit our Privacy Policy to learn more. By continuing to use the site, you agree to this use of cookies and data.
  • In Denmark
  • List of Countries
  • For 7 days
  • Water Temperature
  • Weather Map
  • Weather Widgets
  • user-avatar
    Login

    Hourly Weather Oran

    Today, 4 April, Saturday

    Time Temperature Precipitation Wind Pressure Humidity
    00:00 +11°C° 0 mm 3 mps 753 mmHg 88%
    01:00 +11°C° 0 mm 3 mps 753 mmHg 88%
    02:00 +11°C° 0 mm 3 mps 752 mmHg 87%
    03:00 +11°C° 0 mm 4 mps 752 mmHg 87%
    04:00 +11°C° 0 mm 4 mps 752 mmHg 86%
    05:00 +10°C° 0 mm 4 mps 752 mmHg 85%
    06:00 +10°C° 0 mm 5 mps 752 mmHg 84%
    07:00 +13°C° 0 mm 5 mps 752 mmHg 74%
    08:00 +15°C° 0 mm 6 mps 752 mmHg 64%
    09:00 +17°C° 0 mm 6 mps 752 mmHg 54%
    10:00 +20°C° 0 mm 6 mps 752 mmHg 48%
    11:00 +21°C° 0 mm 6 mps 751 mmHg 42%
    12:00 +23°C° 0 mm 6 mps 751 mmHg 35%
    13:00 +23°C° 0 mm 6 mps 751 mmHg 35%
    14:00 +24°C° 0 mm 7 mps 750 mmHg 36%
    15:00 +24°C° 0 mm 7 mps 750 mmHg 36%
    16:00 +22°C° 0 mm 6 mps 750 mmHg 46%
    17:00 +20°C° 0 mm 6 mps 750 mmHg 55%
    18:00 +19°C° 0 mm 5 mps 750 mmHg 65%
    19:00 +17°C° 0 mm 5 mps 751 mmHg 68%
    20:00 +17°C° 0 mm 4 mps 752 mmHg 70%
    21:00 +17°C° 0 mm 4 mps 752 mmHg 73%
    22:00 +17°C° 0 mm 4 mps 752 mmHg 73%
    23:00 +15°C° 0 mm 4 mps 752 mmHg 73%

    Tomorrow, 5 April, Sunday

    Time Temperature Precipitation Wind Pressure Humidity
    00:00 +16°C° 0 mm 3 mps 752 mmHg 73%
    01:00 +16°C° 0 mm 3 mps 752 mmHg 74%
    02:00 +15°C° 0 mm 2 mps 752 mmHg 75%
    03:00 +15°C° 0 mm 2 mps 751 mmHg 75%
    04:00 +15°C° 0 mm 2 mps 752 mmHg 77%
    05:00 +14°C° 0 mm 3 mps 752 mmHg 79%
    06:00 +13°C° 0 mm 3 mps 752 mmHg 80%
    07:00 +15°C° 0 mm 4 mps 752 mmHg 73%
    08:00 +18°C° 0 mm 4 mps 753 mmHg 65%
    09:00 +20°C° 0 mm 4 mps 753 mmHg 57%
    10:00 +21°C° 0 mm 4 mps 753 mmHg 54%
    11:00 +22°C° 0 mm 4 mps 753 mmHg 51%
    12:00 +23°C° 0 mm 4 mps 753 mmHg 47%
    13:00 +23°C° 0 mm 5 mps 753 mmHg 50%
    14:00 +23°C° 0 mm 5 mps 752 mmHg 54%
    15:00 +22°C° 0 mm 6 mps 752 mmHg 57%
    16:00 +21°C° 0 mm 5 mps 752 mmHg 61%
    17:00 +20°C° 0 mm 5 mps 752 mmHg 65%
    18:00 +19°C° 0 mm 4 mps 752 mmHg 69%
    19:00 +18°C° 0 mm 3 mps 752 mmHg 73%
    20:00 +17°C° 0 mm 3 mps 753 mmHg 77%
    21:00 +16°C° 0 mm 2 mps 754 mmHg 81%
    22:00 +15°C° 0 mm 2 mps 754 mmHg 83%
    23:00 +15°C° 0 mm 2 mps 754 mmHg 85%

    Day after tomorrow, 6 April, Monday

    Time Temperature Precipitation Wind Pressure Humidity
    00:00 +15°C° 0 mm 2 mps 754 mmHg 87%
    01:00 +14°C° 0 mm 2 mps 753 mmHg 88%
    02:00 +14°C° 0 mm 2 mps 753 mmHg 90%
    03:00 +14°C° 0 mm 2 mps 753 mmHg 91%
    04:00 +14°C° 0 mm 1 mps 753 mmHg 92%
    05:00 +13°C° 0 mm 1 mps 754 mmHg 93%
    06:00 +13°C° 0 mm 1 mps 754 mmHg 94%
    07:00 +15°C° 0 mm 1 mps 754 mmHg 87%
    08:00 +18°C° 0 mm 1 mps 755 mmHg 79%
    09:00 +19°C° 0 mm 1 mps 756 mmHg 72%
    10:00 +20°C° 0 mm 2 mps 756 mmHg 68%
    11:00 +21°C° 0 mm 2 mps 756 mmHg 63%
    12:00 +23°C° 0 mm 2 mps 755 mmHg 59%
    13:00 +22°C° 0 mm 3 mps 755 mmHg 59%
    14:00 +21°C° 0 mm 3 mps 755 mmHg 60%
    15:00 +21°C° 0 mm 3 mps 755 mmHg 61%
    16:00 +20°C° 0 mm 3 mps 755 mmHg 63%
    17:00 +20°C° 0 mm 3 mps 755 mmHg 66%
    18:00 +19°C° 0 mm 3 mps 755 mmHg 68%
    19:00 +18°C° 0 mm 2 mps 756 mmHg 71%
    20:00 +17°C° 0 mm 2 mps 757 mmHg 74%
    21:00 +18°C° 0 mm 1 mps 757 mmHg 78%
    22:00 +18°C° 0 mm 1 mps 757 mmHg 78%
    23:00 +16°C° 0 mm 1 mps 757 mmHg 79%

    7 April, Tuesday

    Time Temperature Precipitation Wind Pressure Humidity
    00:00 +16°C° 0 mm 1 mps 757 mmHg 80%
    01:00 +16°C° 0 mm 1 mps 757 mmHg 81%
    02:00 +16°C° 0 mm 1 mps 756 mmHg 82%
    03:00 +16°C° 0 mm 1 mps 756 mmHg 83%
    04:00 +15°C° 0 mm 2 mps 756 mmHg 85%
    05:00 +14°C° 0 mm 3 mps 756 mmHg 88%
    06:00 +14°C° 0 mm 3 mps 756 mmHg 90%
    07:00 +16°C° 0 mm 3 mps 757 mmHg 82%
    08:00 +18°C° 0 mm 3 mps 757 mmHg 74%
    09:00 +19°C° 0 mm 3 mps 757 mmHg 67%
    10:00 +20°C° 0 mm 4 mps 757 mmHg 62%
    11:00 +21°C° 0 mm 4 mps 757 mmHg 57%
    12:00 +22°C° 0 mm 5 mps 757 mmHg 52%
    13:00 +22°C° 0 mm 5 mps 756 mmHg 53%
    14:00 +22°C° 0 mm 6 mps 756 mmHg 54%
    15:00 +21°C° 0 mm 6 mps 756 mmHg 54%
    16:00 +20°C° 0 mm 6 mps 756 mmHg 59%
    17:00 +19°C° 0 mm 6 mps 756 mmHg 64%
    18:00 +17°C° 0 mm 6 mps 756 mmHg 68%
    19:00 +16°C° 0 mm 6 mps 756 mmHg 71%
    20:00 +15°C° 0 mm 5 mps 757 mmHg 74%
    21:00 +14°C° 0 mm 5 mps 757 mmHg 77%
    22:00 +14°C° 0 mm 5 mps 757 mmHg 79%
    23:00 +14°C° 0 mm 5 mps 757 mmHg 81%

    8 April, Wednesday

    Time Temperature Precipitation Wind Pressure Humidity
    00:00 +13°C° 0 mm 5 mps 758 mmHg 83%
    01:00 +13°C° 0 mm 5 mps 757 mmHg 85%
    02:00 +13°C° 0 mm 5 mps 757 mmHg 88%
    03:00 +12°C° 0 mm 4 mps 757 mmHg 90%
    04:00 +12°C° 0 mm 4 mps 757 mmHg 91%
    05:00 +12°C° 0 mm 4 mps 757 mmHg 92%
    06:00 +12°C° 0 mm 5 mps 757 mmHg 92%
    07:00 +14°C° 0 mm 5 mps 757 mmHg 84%
    08:00 +16°C° 0 mm 5 mps 757 mmHg 76%
    09:00 +17°C° 0 mm 5 mps 757 mmHg 68%
    10:00 +20°C° 0 mm 6 mps 757 mmHg 62%
    11:00 +21°C° 0 mm 6 mps 757 mmHg 56%
    12:00 +22°C° 0 mm 7 mps 756 mmHg 51%
    13:00 +22°C° 0 mm 7 mps 756 mmHg 52%
    14:00 +22°C° 0 mm 8 mps 756 mmHg 54%
    15:00 +21°C° 0 mm 8 mps 755 mmHg 55%
    16:00 +20°C° 0 mm 8 mps 755 mmHg 60%
    17:00 +18°C° 0 mm 8 mps 755 mmHg 64%
    18:00 +16°C° 0 mm 8 mps 755 mmHg 68%
    19:00 +16°C° 0 mm 7 mps 755 mmHg 71%
    20:00 +15°C° 0 mm 7 mps 756 mmHg 73%
    21:00 +15°C° 0 mm 6 mps 756 mmHg 75%
    22:00 +14°C° 0 mm 6 mps 756 mmHg 77%
    23:00 +14°C° 0 mm 6 mps 756 mmHg 79%

    9 April, Thursday

    Time Temperature Precipitation Wind Pressure Humidity
    00:00 +14°C° 0 mm 5 mps 756 mmHg 80%
    01:00 +14°C° 0 mm 5 mps 756 mmHg 81%
    02:00 +14°C° 0 mm 5 mps 755 mmHg 82%
    03:00 +14°C° 0 mm 6 mps 755 mmHg 83%
    04:00 +14°C° 0 mm 5 mps 755 mmHg 83%
    05:00 +14°C° 0 mm 5 mps 755 mmHg 84%
    06:00 +14°C° 0 mm 5 mps 755 mmHg 85%
    07:00 +15°C° 0 mm 5 mps 755 mmHg 80%
    08:00 +16°C° 0 mm 5 mps 755 mmHg 76%
    09:00 +17°C° 0 mm 5 mps 755 mmHg 72%
    10:00 +19°C° 0 mm 6 mps 755 mmHg 67%
    11:00 +20°C° 0 mm 6 mps 755 mmHg 62%
    12:00 +21°C° 0 mm 6 mps 755 mmHg 56%
    13:00 +21°C° 0 mm 7 mps 755 mmHg 58%
    14:00 +21°C° 0 mm 7 mps 754 mmHg 59%
    15:00 +21°C° 0 mm 7 mps 754 mmHg 60%
    16:00 +20°C° 0 mm 8 mps 754 mmHg 65%
    17:00 +17°C° 0 mm 8 mps 754 mmHg 70%
    18:00 +16°C° 0 mm 8 mps 754 mmHg 74%
    19:00 +16°C° 0 mm 7 mps 754 mmHg 77%
    20:00 +15°C° 0 mm 6 mps 755 mmHg 79%
    21:00 +14°C° 0 mm 5 mps 755 mmHg 81%
    22:00 +14°C° 0 mm 5 mps 755 mmHg 82%
    23:00 +14°C° 0 mm 4 mps 755 mmHg 84%
    Show more